Weather History for Mackinac Island, MI

Change the Weather History Date:

Thursday, December 12, 2013

  Actual Average Record
Temperature  
Mean Temperature 14 °F -  
Max Temperature 18 °F 32 °F 46 °F (1979)
Min Temperature 10 °F 24 °F -4 °F (1977)
Degree Days  
Heating Degree Days 51    
Moisture  
Dew Point 7 °F    
Average Humidity 69    
Maximum Humidity 84    
Minimum Humidity 60    
Precipitation  
Precipitation 0.00 in - - ()
Sea Level Pressure  
Sea Level Pressure 30.08 in    
Wind  
Wind Speed 19 mph (West)    
Max Wind Speed 28 mph    
Max Gust Speed 36 mph    
Visibility 8 miles    
Events Snow    
Averages and records for this station are not official NWS values.
T = Trace of Precipitation, MM = Missing Value Source: NWS Daily Summary

Daily Weather History Graph

Daily Weather History Graph

Search for Another Location

Airport:

Trip Planner

Search our weather history database for the weather conditions in past years. The results will help you decide how hot, cold, wet, or windy it might be!

Date:

Astronomy

Dec. 12, 2013 Rise Set
Actual Time 8:10 AM EST 4:53 PM EST
Civil Twilight 7:36 AM EST 5:28 PM EST
Nautical Twilight 6:58 AM EST 6:06 PM EST
Astronomical Twilight 6:22 AM EST 6:42 PM EST
Moon 2:10 PM EST (12/12) 3:21 AM EST (12/12)
Length of Visible Light 9h 51m
Length of Day
8h 42m
Waxing Gibbous, 80% of the Moon is Illuminated
Dec 12
Waxing Gibbous
Dec 17
Full
Dec 25
Last Quarter
Jan 1
New
Jan 7
First Quarter

Hourly Weather History & Observations

Time (EST) Temp. Windchill Dew Point Humidity Pressure Visibility Wind Dir Wind Speed Gust Speed Precip Events Conditions
12:15 AM 10.8 °F -6.7 °F 3.4 °F 72% 30.24 in 10.0 mi West 17.3 mph 24.2 mph N/A   Scattered Clouds
12:34 AM 10.9 °F -7.5 °F 2.5 °F 69% 30.23 in 10.0 mi West 19.6 mph 28.8 mph N/A   Clear
12:54 AM 10.9 °F -7.0 °F 1.9 °F 67% 30.23 in 10.0 mi West 18.4 mph 27.6 mph N/A   Scattered Clouds
1:15 AM 11.3 °F -7.0 °F 2.7 °F 68% 30.23 in 10.0 mi West 19.6 mph 26.5 mph N/A   Overcast
1:34 AM 11.1 °F -6.2 °F 3.9 °F 73% 30.22 in 10.0 mi West 17.3 mph 25.3 mph N/A   Overcast
1:54 AM 11.3 °F -5.5 °F 4.6 °F 75% 30.22 in 7.0 mi West 16.1 mph 24.2 mph N/A   Overcast
2:15 AM 11.3 °F -4.9 °F 4.5 °F 74% 30.22 in 10.0 mi West 15.0 mph 24.2 mph N/A   Overcast
2:34 AM 11.5 °F -2.7 °F 4.6 °F 74% 30.21 in 10.0 mi West 11.5 mph 17.3 mph N/A   Overcast
2:55 AM 12.0 °F -2.7 °F 3.9 °F 70% 30.21 in 10.0 mi West 12.7 mph 19.6 mph N/A   Overcast
3:14 AM 12.2 °F -1.8 °F 2.7 °F 66% 30.21 in 10.0 mi West 11.5 mph 19.6 mph N/A   Overcast
3:34 AM 12.6 °F -4.9 °F 1.8 °F 62% 30.20 in 10.0 mi West 18.4 mph 25.3 mph N/A   Overcast
3:55 AM 12.7 °F -3.0 °F 2.1 °F 63% 30.20 in 10.0 mi West 15.0 mph 25.3 mph N/A   Overcast
4:14 AM 12.7 °F -4.6 °F 1.2 °F 60% 30.19 in 10.0 mi WSW 18.4 mph 25.3 mph N/A   Mostly Cloudy
4:34 AM 12.2 °F -0.2 °F 4.6 °F 72% 30.18 in 10.0 mi WNW 9.2 mph 18.4 mph N/A   Overcast
4:55 AM 11.8 °F -6.3 °F 6.1 °F 78% 30.17 in 10.0 mi West 19.6 mph 26.5 mph N/A   Overcast
5:14 AM 12.9 °F -4.4 °F 4.6 °F 70% 30.17 in 10.0 mi West 18.4 mph 29.9 mph N/A   Overcast
5:34 AM 12.9 °F -3.4 °F 6.1 °F 74% 30.17 in 3.0 mi West 16.1 mph 32.2 mph N/A Snow Light Snow
5:55 AM 12.7 °F -6.8 °F 5.9 °F 74% 30.17 in 4.0 mi West 24.2 mph 33.4 mph N/A Snow Light Snow
6:14 AM 12.4 °F -6.0 °F 4.6 °F 71% 30.16 in 7.0 mi West 20.7 mph 33.4 mph N/A   Mostly Cloudy
6:34 AM 12.6 °F -4.9 °F 4.8 °F 71% 30.15 in 10.0 mi West 18.4 mph 31.1 mph N/A   Mostly Cloudy
6:55 AM 12.7 °F -4.6 °F 4.1 °F 68% 30.14 in 10.0 mi West 18.4 mph 26.5 mph N/A   Mostly Cloudy
7:14 AM 12.9 °F -4.4 °F 3.4 °F 66% 30.14 in 7.0 mi West 18.4 mph 32.2 mph N/A   Mostly Cloudy
7:35 AM 12.9 °F -2.2 °F 4.5 °F 69% 30.13 in 10.0 mi West 13.8 mph 31.1 mph N/A   Mostly Cloudy
7:55 AM 13.1 °F -5.9 °F 5.0 °F 70% 30.13 in 7.0 mi West 23.0 mph 33.4 mph N/A   Overcast
8:14 AM 13.1 °F -5.9 °F 5.5 °F 72% 30.12 in 10.0 mi West 23.0 mph 27.6 mph N/A Snow Light Snow
8:35 AM 13.5 °F -5.8 °F 4.5 °F 67% 30.12 in 10.0 mi West 24.2 mph 31.1 mph N/A   Overcast
8:55 AM 14.0 °F -5.5 °F 5.9 °F 70% 30.11 in 10.0 mi West 25.3 mph 32.2 mph N/A   Overcast
9:14 AM 14.7 °F -2.0 °F 6.6 °F 70% 30.10 in 10.0 mi West 18.4 mph 32.2 mph N/A   Overcast
9:35 AM 14.9 °F -3.9 °F 6.8 °F 70% 30.10 in 10.0 mi West 24.2 mph 34.5 mph N/A   Overcast
9:54 AM 15.6 °F -2.9 °F 7.2 °F 69% 30.09 in 7.0 mi West 24.2 mph 33.4 mph N/A   Overcast
10:14 AM 15.6 °F -4.0 °F 7.5 °F 70% 30.09 in 4.0 mi West 27.6 mph 33.4 mph N/A Snow Light Snow
10:35 AM 15.8 °F -1.1 °F 9.9 °F 77% 30.09 in 1.5 mi West 19.6 mph 28.8 mph N/A Snow Light Snow
10:54 AM 15.6 °F -0.9 °F 9.7 °F 77% 30.08 in 1.5 mi West 18.4 mph 31.1 mph N/A Snow Light Snow
11:14 AM 15.4 °F -2.4 °F 9.9 °F 79% 30.08 in 1.8 mi West 21.9 mph 33.4 mph N/A Snow Light Snow
11:35 AM 14.4 °F -2.0 °F 10.4 °F 84% 30.07 in 0.5 mi West 17.3 mph 25.3 mph N/A Snow Snow
11:54 AM 14.0 °F -0.8 °F 8.6 °F 79% 30.06 in 1.2 mi WNW 13.8 mph 25.3 mph N/A Snow Light Snow
12:14 PM 14.5 °F -2.3 °F 5.9 °F 69% 30.05 in 10.0 mi West 18.4 mph 26.5 mph N/A   Overcast
12:35 PM 15.4 °F -0.1 °F 6.1 °F 67% 30.05 in 5.0 mi West 16.1 mph 28.8 mph N/A Snow Light Snow
12:54 PM 16.3 °F -0.4 °F 8.1 °F 70% 30.04 in 7.0 mi West 19.6 mph 28.8 mph N/A   Overcast
1:14 PM 16.7 °F 0.1 °F 8.2 °F 69% 30.03 in 5.0 mi West 19.6 mph 28.8 mph N/A   Haze
1:35 PM 16.7 °F -1.1 °F 8.2 °F 69% 30.03 in 4.0 mi West 23.0 mph 29.9 mph N/A   Haze
1:54 PM 17.1 °F -0.6 °F 8.4 °F 69% 30.03 in 5.0 mi West 23.0 mph 29.9 mph N/A   Haze
2:15 PM 17.6 °F 0.9 °F 8.4 °F 67% 30.02 in 5.0 mi West 20.7 mph 33.4 mph N/A   Haze
2:35 PM 17.6 °F -0.3 °F 7.2 °F 64% 30.01 in 7.0 mi West 24.2 mph 35.7 mph N/A   Overcast
2:54 PM 17.2 °F -0.4 °F 8.2 °F 68% 30.01 in 7.0 mi West 23.0 mph 33.4 mph N/A   Overcast
3:15 PM 17.2 °F -0.8 °F 7.5 °F 66% 30.01 in 10.0 mi West 24.2 mph 29.9 mph N/A   Scattered Clouds
3:35 PM 16.7 °F -0.7 °F 7.7 °F 68% 30.01 in 10.0 mi West 21.9 mph 28.8 mph N/A   Scattered Clouds
3:54 PM 16.5 °F -0.1 °F 6.8 °F 66% 30.01 in 10.0 mi West 19.6 mph 28.8 mph N/A   Scattered Clouds
4:15 PM 16.3 °F 1.0 °F 7.2 °F 67% 30.00 in 10.0 mi West 16.1 mph 27.6 mph N/A   Scattered Clouds
4:35 PM 16.2 °F -1.0 °F 6.8 °F 67% 30.01 in 10.0 mi West 20.7 mph 27.6 mph N/A   Clear
4:54 PM 16.2 °F -1.0 °F 7.0 °F 67% 30.02 in 10.0 mi West 20.7 mph 24.2 mph N/A   Scattered Clouds
5:15 PM 15.8 °F -0.6 °F 6.8 °F 68% 30.01 in 10.0 mi West 18.4 mph 24.2 mph N/A   Scattered Clouds
5:34 PM 16.3 °F -0.4 °F 7.7 °F 69% 30.01 in 10.0 mi West 19.6 mph 24.2 mph N/A   Scattered Clouds
5:55 PM 16.3 °F 0.1 °F 7.2 °F 67% 30.01 in 10.0 mi West 18.4 mph 25.3 mph N/A   Overcast
6:15 PM 16.7 °F 0.1 °F 7.2 °F 66% 30.01 in 10.0 mi West 19.6 mph 25.3 mph N/A   Overcast
6:34 PM 16.7 °F -0.3 °F 7.5 °F 67% 30.01 in 10.0 mi West 20.7 mph 27.6 mph N/A   Overcast
6:55 PM 17.1 °F 1.0 °F 7.0 °F 65% 30.01 in 10.0 mi West 18.4 mph 26.5 mph N/A   Overcast
7:14 PM 17.2 °F -0.0 °F 7.0 °F 64% 30.01 in 10.0 mi West 21.9 mph 28.8 mph N/A   Overcast
7:34 PM 17.6 °F -0.3 °F 7.5 °F 65% 30.00 in 10.0 mi West 24.2 mph 31.1 mph N/A   Overcast
7:55 PM 17.6 °F 0.1 °F 7.0 °F 63% 30.00 in 10.0 mi West 23.0 mph 31.1 mph N/A   Overcast
8:14 PM 18.0 °F 0.2 °F 7.3 °F 63% 29.99 in 10.0 mi West 24.2 mph 31.1 mph N/A   Overcast
8:34 PM 18.3 °F 2.6 °F 8.6 °F 66% 29.99 in 10.0 mi West 18.4 mph 26.5 mph N/A   Overcast
8:55 PM 18.5 °F 2.4 °F 9.1 °F 67% 29.99 in 10.0 mi West 19.6 mph 32.2 mph N/A   Overcast
9:14 PM 18.3 °F 2.2 °F 9.1 °F 67% 29.98 in 10.0 mi West 19.6 mph 32.2 mph N/A   Overcast
9:34 PM 18.5 °F 0.9 °F 9.5 °F 68% 29.98 in 10.0 mi West 24.2 mph 29.9 mph N/A   Overcast
9:55 PM 18.5 °F 2.9 °F 9.9 °F 69% 29.97 in 10.0 mi West 18.4 mph 28.8 mph N/A   Overcast
10:14 PM 18.5 °F 2.0 °F 9.9 °F 69% 29.97 in 10.0 mi West 20.7 mph 31.1 mph N/A   Overcast
10:34 PM 18.1 °F 1.2 °F 9.0 °F 67% 29.97 in 10.0 mi West 21.9 mph 29.9 mph N/A   Overcast
10:55 PM 17.6 °F 0.9 °F 8.8 °F 68% 29.96 in 10.0 mi West 20.7 mph 27.6 mph N/A   Overcast
11:14 PM 17.6 °F 0.9 °F 9.1 °F 69% 29.96 in 10.0 mi West 20.7 mph 29.9 mph N/A   Overcast
11:34 PM 17.4 °F 1.9 °F 9.3 °F 71% 29.96 in 10.0 mi West 17.3 mph 24.2 mph N/A   Scattered Clouds
11:55 PM 17.1 °F 2.5 °F 9.3 °F 72% 29.96 in 10.0 mi West 15.0 mph 26.5 mph N/A   Scattered Clouds